Wind_Speed
8 9 9 8 7 7 7 8 8 9 9 10 11 12 13 13 13 13 14 15 15 15 15 14 14 15 16 16 16 15 15 14 14 14 14 14 15 15 14 14 13 13 13 13 13 13 13 12 12 12 12 12 12 12 13 13 14 14 14 13 13 13 13 12 11 10 9 7 6 5 4 4 5 5 5 5 5 5 5 5 4 4 4 4 5
9 9 9 9 8 9 8 9 9 9 11 12 13 13 13 13 13 13 13 14 14 14 14 14 13 14 16 16 16 15 15 14 14 14 14 14 14 14 14 14 13 13 12 13 13 13 13 12 12 11 11 12 12 13 13 14 14 14 14 13 13 12 12 12 11 11 10 8 7 6 6 5 6 6 6 6 7 7 7 6 6 6 5 5 5
9 9 9 10 10 10 10 10 9 11 14 16 16 14 13 13 13 13 12 13 13 14 14 13 13 14 15 16 16 16 15 14 14 13 13 13 14 14 14 14 13 12 12 13 13 13 13 12 11 11 12 12 13 13 14 15 15 15 14 14 13 12 11 11 11 11 10 9 8 7 7 7 6 6 7 7 7 7 8 8 8 8 7 7 7
13 10 11 12 12 12 11 11 12 15 18 18 17 16 14 12 12 12 12 12 13 13 13 13 13 13 14 15 16 16 15 14 14 13 13 13 13 13 14 14 13 13 12 12 13 13 13 12 11 12 12 13 13 14 15 15 15 15 15 14 13 12 12 11 10 10 10 10 10 9 9 8 8 7 7 8 8 8 8 8 9 9 9 9 9
17 15 16 15 15 14 13 14 17 20 20 19 18 17 15 13 12 12 12 12 12 12 13 13 12 12 13 14 15 15 15 15 14 14 13 13 13 13 13 13 13 13 12 12 13 13 13 12 12 12 12 13 14 15 15 16 16 15 15 14 13 13 12 12 11 11 11 11 11 10 9 9 9 9 8 8 8 7 7 8 9 9 10 10 10
20 19 19 18 17 17 17 17 20 21 20 19 19 18 17 15 13 12 12 11 11 12 12 13 12 12 12 13 14 15 15 15 15 14 13 13 12 12 13 13 13 13 12 12 12 13 13 12 12 12 12 13 14 15 15 16 16 15 15 14 14 13 13 12 12 12 11 11 11 10 10 10 10 10 9 8 7 7 7 7 8 9 9 10 10
23 20 18 16 15 16 16 18 20 20 19 19 19 20 19 17 15 13 12 11 11 11 12 13 12 12 12 12 13 14 15 15 15 14 14 13 12 12 13 13 13 13 12 12 12 12 13 12 12 12 12 13 14 15 15 16 16 15 15 15 14 14 13 13 12 12 12 12 11 11 12 12 11 11 10 8 8 7 7 7 7 8 8 9 10
25 18 14 14 14 15 18 20 21 20 20 21 21 21 21 20 17 14 12 12 11 11 12 13 13 12 12 12 12 13 14 15 15 15 14 13 12 11 12 13 13 13 12 12 11 12 12 12 12 12 12 13 13 14 15 16 15 15 15 15 15 15 14 13 13 13 13 12 11 12 13 12 12 11 10 10 9 8 8 7 7 7 8 9 9
24 17 15 16 17 19 22 22 20 20 21 22 22 22 22 21 18 16 13 12 11 11 12 13 13 13 12 12 12 12 13 14 15 15 15 14 12 11 12 12 12 13 13 12 11 11 12 12 12 11 12 12 13 14 15 16 15 15 15 15 15 15 15 14 14 14 14 12 12 13 13 12 11 10 10 10 10 10 10 9 8 8 8 9 9
23 20 20 21 21 21 21 20 20 20 22 23 23 22 22 20 18 16 13 12 12 11 12 13 13 13 13 12 12 12 12 13 14 15 15 14 12 11 11 12 12 13 12 12 11 10 11 11 11 11 11 12 12 13 15 15 15 15 15 15 15 16 15 15 15 15 13 13 13 13 12 11 11 11 11 11 11 11 11 10 10 9 9 9 10
26 26 25 23 21 20 20 20 21 22 23 24 23 22 21 19 17 15 13 12 13 12 12 13 13 14 13 12 12 11 12 12 13 15 16 15 13 11 11 12 12 12 12 12 11 10 10 11 11 11 11 11 12 13 14 15 15 14 14 14 15 15 16 15 15 15 14 13 14 13 12 11 11 11 11 12 11 11 11 11 10 10 10 10 10
28 27 24 22 21 21 21 22 22 23 23 23 23 22 21 18 16 14 13 12 13 13 12 13 13 13 13 13 12 11 11 11 12 14 15 15 14 12 11 12 12 12 12 12 11 9 10 10 11 11 11 11 11 12 13 14 14 14 14 14 14 15 15 15 15 15 14 14 14 13 11 12 12 12 12 12 12 12 11 11 11 11 11 11 10
27 24 21 20 21 22 23 23 23 23 23 22 22 21 20 18 15 14 13 13 13 13 12 13 13 13 13 13 12 11 10 10 11 13 15 16 15 12 11 12 12 12 12 12 11 9 9 10 10 10 10 10 11 12 13 13 14 14 14 14 14 14 15 15 14 14 14 13 14 13 12 13 12 12 13 13 13 13 13 12 12 12 12 12 12
24 21 20 21 22 23 24 24 24 23 22 21 20 20 20 18 16 15 14 14 13 12 12 12 12 13 13 12 12 11 10 10 10 12 14 15 15 13 11 12 12 12 12 11 11 9 8 9 10 10 10 10 10 11 12 13 13 14 13 13 13 14 14 14 13 13 13 13 13 13 13 14 14 14 14 13 13 13 14 14 14 13 13 13 13
23 22 22 23 24 25 25 25 24 22 21 20 20 20 19 18 17 16 16 15 14 12 12 12 12 13 13 12 11 11 10 10 10 10 13 15 15 14 12 12 12 12 12 11 11 9 8 8 9 9 10 10 10 11 11 12 13 13 13 13 13 13 13 13 13 13 13 13 13 13 13 14 14 14 14 14 13 13 14 14 14 15 15 14 14
20 22 22 22 23 24 24 24 23 22 21 20 21 20 20 19 18 17 17 16 14 12 12 12 13 13 13 12 12 11 11 10 10 10 11 14 15 15 13 12 12 12 12 11 11 10 8 8 8 8 9 9 10 10 11 11 12 12 13 14 14 13 13 13 13 12 12 12 12 12 12 13 12 13 13 12 12 13 13 13 14 14 15 15 15
16 19 20 20 22 23 23 22 23 22 22 22 22 21 20 19 18 18 18 17 14 13 13 14 14 14 14 14 13 13 12 11 11 10 11 13 15 15 13 12 12 12 12 12 11 10 8 8 8 8 8 9 9 10 10 11 11 12 12 13 14 14 13 13 13 13 13 13 13 12 12 12 11 11 11 11 11 11 12 12 13 13 14 15 15
21 22 23 23 24 24 24 22 22 22 23 23 22 21 20 19 19 18 18 16 14 14 14 15 15 15 15 15 15 14 14 13 12 11 11 12 14 15 14 12 12 12 13 12 12 10 9 8 8 8 8 8 9 9 9 10 11 11 11 12 13 13 13 14 14 15 14 14 13 12 12 12 11 10 10 11 11 11 11 11 12 12 13 13 14
26 27 30 31 30 30 27 25 24 25 25 24 23 21 20 20 19 19 17 15 14 14 15 16 16 16 17 16 16 16 16 15 14 13 12 13 14 14 13 12 12 12 13 13 12 11 9 8 8 8 7 8 8 8 9 9 10 10 10 11 12 12 13 14 15 16 16 15 14 12 12 12 11 10 10 11 11 12 12 12 11 12 12 12 12
26 24 28 33 35 35 33 30 30 29 28 27 24 22 21 21 20 19 16 15 14 15 15 16 17 17 18 18 18 18 18 17 16 14 13 14 14 14 13 12 11 12 13 13 12 11 10 9 8 8 8 8 8 8 8 9 9 9 10 10 11 11 12 12 14 15 16 16 15 14 13 11 10 10 10 10 11 11 12 12 12 11 11 11 12
31 24 25 30 33 34 34 33 33 32 31 29 26 24 23 22 20 18 16 15 14 15 16 17 18 18 19 19 20 20 19 18 17 15 14 14 14 13 13 12 11 11 12 13 13 12 11 10 9 9 9 8 8 8 8 9 9 9 10 10 11 11 11 12 12 14 15 16 15 15 14 12 11 10 10 10 10 11 11 12 12 12 11 11 11
36 31 28 30 32 31 31 33 34 35 34 31 29 27 25 22 20 18 16 15 15 15 16 18 19 19 20 20 20 21 20 19 18 16 14 14 14 13 12 12 12 11 12 13 13 12 12 11 10 10 9 9 9 9 9 9 9 9 9 10 10 11 11 11 12 13 14 15 15 16 16 14 13 11 10 10 11 11 11 11 12 12 12 12 11
34 33 30 31 32 31 31 32 34 36 35 34 32 29 26 22 19 17 16 15 15 16 17 18 19 20 20 21 21 21 20 19 18 15 14 14 13 12 12 12 12 11 11 12 13 13 13 12 11 11 10 10 10 9 9 9 10 10 10 9 10 10 10 11 12 13 13 14 15 16 16 16 15 14 12 11 11 11 11 11 11 12 12 12 12
31 31 29 28 29 29 29 30 33 34 35 34 33 30 26 21 18 17 16 15 15 16 17 19 20 20 20 21 21 21 20 19 17 15 13 13 13 12 12 12 12 11 10 11 12 13 13 13 13 12 12 11 11 10 10 10 10 10 10 10 11 10 10 11 12 13 13 13 15 16 16 17 16 16 15 13 12 12 12 12 11 11 11 12 12
28 28 27 26 27 28 28 29 31 32 33 33 32 30 26 20 17 16 16 15 16 17 18 19 20 20 20 22 22 21 20 18 16 15 13 13 13 12 12 12 12 11 10 10 11 13 13 14 13 13 13 13 13 13 11 11 12 12 12 12 12 12 11 11 12 12 13 14 14 15 16 16 16 16 16 15 14 13 13 13 12 12 11 11 12
26 26 26 26 27 27 27 28 30 30 30 31 30 29 25 20 17 16 16 16 17 18 19 20 20 20 21 22 22 21 19 18 16 15 13 13 13 12 12 12 12 11 11 10 10 12 13 13 14 14 14 14 14 15 14 13 13 13 13 13 14 13 12 12 13 13 14 14 15 15 16 16 16 17 17 16 16 15 14 14 14 13 12 12 12
26 25 25 25 26 27 27 27 29 29 29 30 30 28 24 20 19 17 17 18 18 19 20 21 20 20 21 22 22 20 19 17 16 15 14 13 13 13 13 13 12 11 11 10 9 10 12 13 14 14 14 15 15 15 15 15 15 15 15 15 15 14 14 14 14 14 15 15 15 15 16 16 16 17 17 17 17 17 16 15 14 14 13 12 12
25 25 25 25 26 27 28 28 28 28 29 30 30 28 24 22 20 18 18 19 19 20 21 21 21 21 22 22 22 20 18 17 17 15 14 13 14 14 14 14 13 12 11 10 9 10 11 12 13 14 14 14 15 15 15 16 16 17 16 16 16 16 16 16 16 15 15 15 16 16 16 16 16 16 17 18 18 18 17 16 15 14 14 13 12
25 25 26 26 25 27 29 29 28 29 29 30 31 28 25 24 22 20 20 20 20 20 21 21 21 21 22 22 21 20 18 17 16 16 14 14 14 14 14 14 14 13 12 11 10 10 11 12 13 13 13 14 15 15 15 15 16 16 16 16 16 17 17 18 17 16 15 15 16 16 16 16 16 16 17 18 18 18 19 18 16 15 14 13 12
23 24 26 26 26 27 29 29 29 29 29 31 31 28 26 25 23 22 21 21 21 20 20 21 21 22 23 22 21 19 18 17 16 16 15 14 14 15 15 15 14 14 13 12 11 10 11 12 13 13 13 13 14 14 15 15 16 16 16 15 16 17 17 18 18 17 16 16 16 16 16 16 16 16 16 17 18 18 19 19 17 16 15 14 13
22 23 25 26 26 27 29 30 29 29 29 31 31 29 27 26 25 23 22 22 21 20 20 20 21 22 23 23 21 19 17 17 16 16 15 14 14 15 15 16 15 14 13 13 13 11 11 12 13 13 13 13 13 14 14 15 16 16 16 15 16 17 17 17 17 16 16 16 16 15 16 16 16 16 16 17 17 18 19 19 18 16 15 14 13
22 23 24 24 25 26 29 30 29 29 29 31 31 29 28 27 26 24 22 22 21 20 19 20 21 22 24 23 22 18 17 17 16 16 16 15 14 15 15 16 16 15 14 14 14 13 12 12 12 12 13 13 13 14 15 15 15 15 15 15 16 17 17 16 15 15 15 15 15 15 15 15 16 16 17 17 17 18 19 19 18 17 16 15 14
23 23 23 23 25 26 28 29 29 29 29 31 31 29 28 27 25 23 23 22 21 20 19 20 21 23 24 24 23 19 16 18 18 16 16 15 15 15 15 15 15 15 15 15 15 15 14 13 13 12 12 13 13 14 15 14 14 15 15 15 16 16 16 14 14 14 14 14 14 14 15 15 15 16 17 17 17 18 19 19 18 17 16 15 15
23 22 22 22 24 26 28 29 29 28 30 30 29 28 28 27 25 23 23 22 21 20 19 20 22 23 25 25 24 20 17 18 18 17 16 16 15 14 14 15 15 15 16 16 16 16 16 15 14 13 13 13 14 15 15 14 14 15 15 15 15 16 15 13 12 13 13 13 13 13 15 15 15 16 17 17 17 18 18 19 18 17 16 15 15
23 22 22 23 24 25 27 29 29 29 29 29 28 27 27 26 24 23 23 22 22 20 20 21 22 24 26 26 25 22 20 19 19 18 17 16 15 15 14 15 15 15 15 17 18 17 17 16 15 14 14 14 14 15 16 15 15 15 15 14 14 15 14 13 12 12 13 13 13 13 14 15 15 16 16 17 17 18 18 19 18 17 16 15 15
24 23 23 23 23 24 26 28 29 29 28 27 26 26 26 25 24 23 23 22 22 21 21 22 23 25 27 28 26 24 22 21 21 20 18 17 15 15 14 15 15 15 15 17 19 19 18 17 16 15 15 14 15 16 16 15 15 15 14 13 13 14 13 12 12 12 12 12 12 13 14 15 15 15 15 15 16 17 18 18 18 17 16 16 15
24 24 24 23 23 24 25 27 27 27 28 27 25 25 24 24 24 23 23 23 22 22 22 23 24 26 28 28 28 26 24 23 23 22 20 18 16 15 14 16 16 14 14 16 18 20 19 18 16 16 15 15 16 17 16 15 16 15 14 13 12 13 12 12 11 11 12 12 12 13 14 15 15 15 15 14 15 16 17 18 17 16 16 15 15
24 24 24 23 24 24 24 25 25 26 26 25 24 24 23 24 24 24 23 23 22 22 23 25 26 27 28 29 29 28 25 25 25 24 22 19 17 15 15 16 16 15 14 15 17 19 18 17 16 16 16 16 17 17 16 16 16 15 14 13 13 12 11 11 11 10 11 12 13 14 15 15 15 14 14 14 14 15 16 17 16 16 16 15 14
24 25 24 24 25 24 23 23 23 24 24 24 24 24 24 24 24 24 23 23 22 23 25 26 26 26 28 29 30 28 25 25 26 25 23 22 19 16 16 17 17 16 16 17 18 20 19 16 15 15 15 16 17 17 17 17 17 15 13 13 12 11 10 10 10 10 11 13 13 14 16 15 14 14 14 15 15 15 17 17 16 16 15 15 14
25 25 24 24 24 24 23 22 22 22 22 23 24 24 24 24 24 24 23 23 24 25 25 25 25 26 27 28 28 27 24 23 24 23 22 22 20 18 18 19 19 19 19 19 19 21 23 19 15 15 15 16 17 17 17 18 17 14 13 13 12 10 9 10 9 10 12 13 13 15 16 15 14 14 14 14 15 16 16 16 15 16 15 15 14
25 24 23 24 24 24 23 22 22 22 22 23 23 23 24 24 24 24 23 24 25 25 25 25 25 25 25 25 26 25 22 22 22 20 20 22 22 21 21 21 21 20 20 19 20 23 23 20 16 15 16 17 18 17 17 18 16 14 13 13 11 9 9 8 8 10 12 13 13 15 15 15 14 14 13 13 15 16 16 15 14 15 15 14 14
23 23 23 24 25 24 23 22 21 21 21 22 23 23 25 25 24 24 24 25 25 25 25 24 24 23 23 23 23 23 21 20 19 18 18 20 21 22 22 21 20 20 20 19 20 20 19 17 16 15 16 18 17 16 17 17 15 14 13 12 10 8 8 8 8 10 12 13 14 15 15 14 14 14 13 13 14 15 15 14 13 13 14 13 13
22 23 23 24 24 23 22 21 21 21 21 22 23 24 26 26 24 24 25 25 25 25 25 23 23 22 22 22 22 21 20 20 19 18 17 18 20 21 21 20 20 19 19 18 18 18 16 16 16 16 17 18 17 17 17 16 14 13 13 11 9 8 7 7 8 10 12 13 14 15 15 15 15 15 14 13 15 15 15 14 13 12 13 13 13
21 22 22 22 23 23 22 21 22 22 22 23 24 26 26 25 25 25 25 24 24 24 23 23 23 22 22 23 23 22 21 21 20 18 17 16 17 18 18 18 20 20 19 18 18 18 18 18 17 18 18 18 18 17 17 15 14 13 13 11 9 7 7 8 9 10 12 14 14 15 16 16 16 15 14 14 15 16 16 14 13 12 13 13 14
21 21 22 22 23 23 22 22 23 23 24 24 25 25 25 24 24 24 23 22 22 23 23 23 23 23 23 24 25 25 24 23 22 18 17 17 16 16 16 18 20 20 18 18 18 18 19 21 20 20 19 18 18 17 16 14 14 13 12 11 9 7 7 8 9 10 12 14 15 15 17 17 17 16 15 15 15 16 16 15 13 13 13 14 15
21 21 21 22 24 24 23 24 24 24 24 24 24 24 23 23 23 22 21 20 21 23 23 23 23 23 24 26 27 27 26 25 23 20 18 17 18 17 17 18 21 20 18 17 18 19 19 21 21 20 19 19 18 16 15 14 13 13 12 10 9 8 8 8 9 11 11 13 15 15 16 17 16 16 16 16 16 16 16 15 14 14 14 14 15
21 21 22 23 25 24 24 25 25 25 25 24 24 23 22 22 22 20 19 20 21 23 23 23 23 23 24 26 28 28 26 24 24 23 21 20 19 19 18 20 21 20 18 17 18 18 17 18 19 19 17 19 19 17 15 14 13 13 12 11 9 8 9 8 9 11 12 12 14 15 16 16 15 15 16 17 17 17 16 15 15 15 15 15 15
22 22 22 24 25 25 25 26 26 26 26 25 24 22 21 21 20 19 18 20 21 23 24 24 24 23 25 27 28 28 26 22 19 18 18 19 19 19 18 19 21 20 18 17 17 17 15 16 17 16 16 18 18 17 15 14 15 14 12 11 9 8 9 9 9 10 11 12 13 14 14 14 14 14 16 17 17 16 16 15 15 15 16 16 16
23 22 22 24 26 26 26 26 27 26 26 25 24 21 20 18 18 17 18 19 21 23 25 25 24 24 27 28 28 27 25 22 20 20 21 20 17 17 18 18 19 20 19 18 17 16 15 17 18 16 15 17 18 18 16 16 16 15 13 11 9 8 9 10 10 10 11 11 12 13 13 12 14 15 16 17 17 16 15 15 16 15 15 16 16
23 23 23 25 26 27 26 27 27 27 27 25 22 19 18 17 17 17 18 20 21 23 25 25 25 26 28 29 28 27 25 25 27 29 28 24 18 15 16 18 19 20 20 19 17 16 16 16 16 15 14 15 18 19 17 17 16 15 13 11 9 9 9 10 11 11 11 12 12 13 13 13 14 15 16 17 17 15 14 15 16 16 15 16 17
25 25 24 25 26 26 27 27 27 27 26 24 20 18 18 18 18 19 19 20 22 23 24 25 26 27 28 28 27 26 24 24 25 26 27 26 21 16 16 17 18 18 18 18 16 16 15 14 15 16 15 15 18 18 18 17 17 15 13 11 9 10 10 11 11 12 12 13 13 13 13 13 15 16 16 16 16 14 13 14 16 16 16 17 18
Wind_Direction
302 302 296 291 296 303 313 321 327 330 332 334 334 336 339 340 340 341 343 346 344 343 345 348 354 1 7 8 5 359 354 352 350 349 350 352 352 352 353 355 357 358 357 357 359 359 359 1 4 6 9 11 13 15 17 17 15 13 10 8 6 5 4 3 4 5 6 4 359 351 343 335 331 331 331 331 329 327 323 318 312 306 301 296 294
314 315 304 298 298 301 306 313 321 325 328 329 329 332 335 338 339 339 340 343 344 342 344 346 351 358 5 9 7 2 356 352 349 347 348 350 350 350 351 352 353 355 357 357 359 359 358 360 5 9 12 14 15 16 16 15 13 11 8 7 5 5 3 2 2 2 2 0 357 349 342 338 331 330 330 329 329 329 327 323 317 308 300 295 290
312 323 314 306 302 301 302 307 316 321 323 323 323 326 331 335 337 338 339 341 344 343 343 345 349 356 3 8 9 5 358 352 348 346 346 347 347 348 348 348 350 351 355 358 360 358 356 359 5 10 14 15 15 15 15 13 12 10 7 5 4 4 3 3 3 3 2 359 357 353 351 347 336 334 334 328 327 328 329 329 325 320 312 304 296
289 300 305 302 300 299 299 303 311 317 319 320 321 322 326 334 335 336 337 339 342 343 343 345 348 353 0 6 9 6 0 354 349 346 343 344 344 345 345 345 346 348 352 358 360 357 354 357 5 12 14 15 15 14 13 12 11 8 6 5 5 5 6 6 6 5 4 1 360 359 357 352 345 347 342 331 327 326 327 329 330 328 325 319 311
281 287 291 290 290 291 293 299 306 312 314 316 318 319 322 330 334 333 333 335 338 342 343 345 348 351 356 2 6 6 2 356 350 345 342 340 341 342 341 342 343 344 349 356 359 357 354 356 4 12 15 15 14 13 12 12 9 7 8 9 9 10 12 12 13 12 8 7 6 3 0 358 357 357 348 334 328 327 326 327 328 328 327 325 320
282 288 289 285 281 282 288 295 304 307 308 312 315 316 319 325 331 331 329 330 333 338 341 344 347 348 352 356 1 4 3 358 352 345 340 337 337 338 338 339 340 340 344 353 359 358 355 357 4 12 15 15 14 14 13 11 9 10 14 15 14 17 21 22 21 18 15 14 11 8 6 6 4 2 354 340 334 332 330 329 328 327 326 324 322
285 290 287 280 276 279 285 296 303 302 303 308 309 312 315 319 326 328 326 326 329 333 338 341 344 346 347 351 356 1 2 360 354 346 339 334 333 334 333 335 336 337 340 349 357 358 356 357 2 10 15 14 15 15 14 12 12 17 20 20 19 22 29 31 26 21 20 17 14 15 14 10 7 5 359 352 350 347 342 337 334 330 327 324 322
283 283 274 272 273 279 287 296 299 296 299 303 305 308 311 316 321 325 324 325 327 330 333 337 339 342 344 346 350 356 1 1 356 347 338 332 330 330 329 331 332 333 336 344 355 359 358 357 1 8 14 14 15 16 15 15 17 23 26 26 25 27 34 35 29 26 23 16 15 20 18 14 11 8 4 3 5 3 359 353 348 341 334 329 325
275 268 262 270 274 281 287 292 292 292 298 301 302 304 308 313 319 322 323 326 328 329 331 333 334 336 340 343 346 351 357 1 357 349 340 331 327 325 325 326 328 330 331 339 350 358 358 357 359 5 12 14 15 17 17 19 22 27 32 34 32 33 36 35 32 31 24 16 20 24 19 15 13 12 12 12 13 12 10 6 2 354 347 339 332
263 261 266 272 276 280 284 287 287 290 296 298 299 301 306 312 318 320 321 327 330 331 330 329 329 330 335 339 342 346 352 359 359 352 342 332 326 323 321 321 323 325 328 333 344 356 358 356 357 3 10 13 15 17 20 22 26 30 35 38 38 39 40 36 33 34 28 25 31 28 18 13 12 15 16 17 17 16 14 11 8 4 357 348 340
256 261 267 272 277 280 281 283 285 289 293 294 296 300 305 311 319 319 320 327 331 332 329 325 324 325 329 334 338 342 348 356 358 354 346 336 327 320 316 315 318 320 323 328 337 351 357 354 355 1 7 11 14 17 22 25 28 32 35 37 38 41 44 39 34 37 35 34 40 31 19 15 14 16 18 20 19 17 16 13 10 7 1 354 346
257 260 265 271 276 278 280 282 285 288 290 291 294 299 304 312 321 320 318 325 330 331 328 324 321 321 323 328 334 338 343 350 355 355 350 341 331 321 312 310 312 315 317 322 330 345 354 353 353 358 4 9 12 16 21 26 30 33 35 34 33 36 42 42 38 41 40 40 44 36 26 24 21 21 22 22 22 20 19 16 13 8 3 357 350
257 260 266 272 276 278 280 281 284 287 289 290 293 298 303 312 322 320 317 322 327 328 326 322 321 321 321 325 330 334 339 345 352 355 353 347 337 325 311 305 307 308 311 317 323 336 349 351 351 355 0 6 10 14 18 24 29 32 36 34 30 30 34 39 39 43 45 45 50 45 37 34 30 29 29 27 26 25 24 20 17 12 7 1 354
260 264 270 274 275 276 276 278 282 285 287 289 292 296 301 310 318 318 316 317 321 324 323 322 322 322 323 326 329 332 335 339 347 353 353 349 342 331 313 302 302 303 306 311 316 327 342 347 349 352 357 3 8 12 15 20 26 30 34 34 32 29 29 34 36 39 43 44 48 47 43 39 36 35 34 32 31 31 29 25 22 18 14 8 2
263 268 271 272 271 271 272 276 280 283 285 286 290 294 299 306 312 314 312 313 316 319 319 321 322 322 323 326 328 329 332 335 341 348 350 347 343 337 320 301 297 297 299 305 309 318 333 340 346 350 353 359 4 9 12 15 22 28 33 35 35 33 28 29 33 33 36 40 42 43 44 42 38 37 35 33 32 31 29 26 25 22 20 15 10
259 265 266 266 266 269 273 276 279 280 281 283 287 291 297 303 307 308 307 309 312 313 314 317 318 318 319 322 325 326 329 332 337 342 345 343 340 340 329 304 293 292 294 298 302 308 321 330 338 346 350 355 359 5 10 10 15 24 30 34 37 37 32 29 32 33 33 36 38 39 42 41 37 35 33 30 28 26 24 22 22 21 20 18 15
252 259 261 264 267 271 274 276 276 277 278 280 284 288 294 299 301 301 301 304 307 307 309 311 313 314 315 318 320 321 324 329 333 336 338 337 333 337 335 312 292 287 289 292 295 300 310 319 328 339 345 349 354 0 6 7 10 18 26 32 36 37 37 34 34 34 33 34 34 34 39 38 32 30 27 24 22 19 18 16 16 16 17 18 16
250 255 258 262 267 271 272 272 272 275 277 279 281 286 291 294 294 294 295 298 300 302 304 306 308 310 313 315 316 317 320 324 328 330 330 328 326 332 336 320 295 284 283 286 289 292 299 308 317 328 337 343 348 354 359 4 5 10 20 29 34 34 33 34 34 34 32 31 30 30 36 36 29 26 23 20 17 14 12 10 10 10 12 13 14
253 260 262 261 264 266 266 265 267 272 275 276 278 282 285 287 287 288 290 292 295 297 300 302 304 307 310 311 312 313 316 319 323 325 323 320 319 326 334 326 301 282 278 279 283 286 289 297 307 316 325 333 339 345 350 358 2 4 10 19 26 28 27 26 28 31 31 29 26 24 31 34 27 24 22 20 17 13 10 7 7 7 9 9 10
264 267 265 266 264 262 261 261 263 267 270 271 274 278 279 280 282 284 286 287 290 293 296 298 300 303 306 308 309 310 312 315 319 319 316 313 312 320 329 328 307 283 275 274 277 281 283 288 296 304 312 320 326 333 340 348 357 359 360 6 13 17 19 17 17 22 25 27 24 20 24 25 23 23 22 21 18 14 11 7 6 7 8 8 7
280 274 262 264 264 262 261 260 261 263 265 268 270 273 274 275 277 280 281 282 286 290 293 295 298 302 305 306 307 308 309 311 314 314 310 306 306 314 324 325 313 289 275 272 272 275 277 280 287 293 300 307 313 323 330 337 345 350 352 355 360 4 9 10 10 12 15 19 19 19 21 18 17 19 19 22 19 15 12 10 8 7 7 8 7
283 276 261 258 257 258 261 261 260 259 261 264 267 269 270 271 273 275 276 278 282 286 290 294 297 301 303 305 305 306 307 308 310 309 304 299 300 309 319 322 317 298 277 272 270 270 271 274 278 283 288 295 302 312 320 326 332 337 341 344 349 354 358 1 3 6 9 9 9 14 18 16 13 11 12 16 16 13 11 11 10 8 7 7 7
275 270 264 259 255 255 259 260 257 255 256 260 264 266 267 268 268 269 270 274 279 283 288 293 297 301 303 303 304 305 306 307 307 305 299 294 295 303 313 317 319 308 285 273 271 269 268 269 272 276 279 285 292 300 308 314 318 321 325 329 334 341 348 350 353 358 2 2 2 7 11 12 10 7 5 7 9 8 8 9 8 7 7 6 6
267 266 265 262 258 256 257 256 253 251 252 256 261 263 264 264 263 264 266 270 275 281 287 292 296 300 302 302 303 305 305 307 306 303 295 290 292 299 306 312 317 313 294 276 272 271 269 268 268 270 274 278 282 287 292 300 305 307 312 316 319 325 335 340 343 347 350 354 358 1 4 5 5 4 2 0 359 359 2 3 4 5 5 5 4
264 264 263 261 256 254 254 252 250 248 248 252 256 259 260 260 258 258 262 268 273 279 285 290 294 298 301 301 302 305 306 306 306 303 295 287 290 295 300 307 313 312 301 283 273 272 272 271 269 269 271 274 278 281 284 290 295 300 305 306 308 316 324 327 330 333 338 346 351 354 356 358 358 359 359 358 355 353 353 356 357 359 1 3 2
260 261 261 259 254 250 249 249 248 246 245 247 250 253 255 254 252 255 260 266 272 278 283 287 292 296 299 300 302 305 306 305 305 304 296 286 287 292 296 303 309 309 304 291 277 273 273 273 273 272 272 274 277 281 285 287 289 294 297 298 304 311 313 315 318 323 329 336 343 346 347 349 351 352 353 355 354 351 349 349 350 352 354 358 0
256 258 260 259 255 249 246 245 246 245 243 242 244 247 250 249 249 253 259 265 270 275 279 284 290 294 296 298 300 303 304 304 304 303 295 285 285 289 294 300 304 306 305 298 285 276 274 274 275 274 275 276 278 280 285 289 292 295 295 298 303 305 305 307 311 316 321 328 334 336 337 341 345 346 347 349 351 351 348 345 345 346 348 350 354
257 257 257 258 255 248 244 242 243 243 242 240 240 241 243 245 247 252 258 263 267 271 276 283 289 293 294 296 298 300 301 301 301 301 294 284 281 285 290 295 298 301 302 300 293 281 274 273 275 276 278 280 281 281 284 288 291 293 295 300 302 301 302 303 305 308 314 319 322 324 328 332 336 340 342 343 347 349 347 343 342 342 343 343 346
256 254 252 252 250 245 241 240 239 239 239 239 237 236 239 242 246 250 255 260 264 268 275 282 287 290 291 293 295 297 298 298 298 298 293 284 279 282 286 290 294 296 299 299 296 287 277 273 273 276 278 281 282 282 282 283 285 289 294 297 297 298 299 299 299 302 305 307 310 315 320 324 329 335 337 338 343 347 346 342 340 339 338 338 339
251 249 247 247 245 242 238 237 236 236 236 238 236 234 236 240 244 248 252 256 260 266 274 281 285 288 289 289 291 293 295 294 294 295 293 285 279 281 284 288 292 294 298 299 296 288 279 275 273 273 275 276 277 279 282 285 287 290 291 290 289 292 293 292 293 295 297 300 304 310 314 319 325 329 331 334 339 344 343 341 339 336 334 334 334
249 246 243 244 243 240 237 235 235 235 235 236 236 234 234 238 242 245 249 253 257 264 272 278 282 285 286 286 287 290 293 291 290 291 291 286 281 280 283 287 291 294 299 298 294 289 282 275 273 272 273 274 276 281 284 286 287 287 286 286 287 289 289 288 289 291 294 297 302 307 311 317 321 322 325 330 336 340 341 341 338 334 332 332 332
250 245 242 243 242 240 237 235 235 234 234 234 235 234 233 236 240 243 246 250 255 261 269 275 279 283 283 283 284 286 289 287 286 287 288 286 283 281 283 287 292 298 300 297 294 293 287 279 274 273 274 276 278 279 279 281 284 285 285 285 287 289 291 292 293 294 294 296 301 307 310 315 317 317 321 327 333 337 339 340 336 332 331 331 330
248 245 243 243 243 241 238 236 235 234 233 234 234 233 233 235 238 240 243 247 253 259 265 271 276 280 280 280 281 282 282 282 282 283 284 285 283 281 282 287 294 299 299 298 297 295 291 284 278 275 274 275 275 274 274 278 282 283 284 286 289 292 294 295 296 296 296 297 301 306 309 313 315 315 319 324 330 335 337 337 334 331 328 328 327
245 244 243 243 244 242 239 238 236 235 235 235 233 232 231 232 234 237 241 246 251 257 263 269 273 277 278 277 278 278 275 275 276 277 278 281 282 279 280 286 293 297 298 300 301 297 292 288 284 279 276 274 274 274 275 277 280 285 288 290 293 295 296 296 295 295 296 298 302 306 308 312 314 314 317 322 328 333 335 334 333 328 325 322 320
242 242 240 240 243 243 241 239 237 236 237 236 233 230 229 230 231 234 240 245 251 256 261 266 270 273 275 276 276 275 272 270 270 270 271 276 278 277 278 283 288 292 298 302 303 300 295 292 287 283 277 273 273 274 275 277 281 286 288 291 294 296 297 297 296 296 297 300 304 305 307 311 312 312 315 321 327 331 332 332 330 326 321 317 314
241 240 239 239 241 244 243 240 238 237 237 238 234 230 227 227 228 232 239 245 252 257 260 263 267 271 273 273 274 273 270 268 267 266 267 270 274 275 277 281 285 291 299 303 304 303 299 295 289 283 278 274 273 274 276 280 281 282 286 291 295 296 296 297 298 297 298 301 302 303 306 309 308 309 313 318 323 328 330 329 328 324 319 314 314
239 238 239 239 241 244 244 243 240 238 237 238 235 230 226 226 228 231 239 246 252 257 261 263 264 268 270 272 273 272 271 269 268 267 267 268 271 274 276 279 283 289 296 299 301 301 299 296 290 284 280 276 274 275 277 280 281 282 287 292 292 293 296 298 298 297 299 300 300 304 306 306 307 308 310 315 321 326 328 327 325 322 317 314 313
238 238 238 238 240 244 246 245 243 239 236 235 234 230 224 224 227 232 240 246 253 258 261 262 264 268 272 274 275 276 276 274 272 271 270 269 271 274 275 276 279 284 285 283 285 287 288 289 287 284 280 277 274 276 278 279 281 284 288 289 289 293 297 296 296 298 299 299 302 306 305 304 306 307 309 315 322 325 326 326 325 319 316 315 313
239 238 237 236 239 243 246 247 245 240 234 231 230 228 224 222 226 233 240 245 252 256 257 260 265 270 275 276 277 279 281 279 277 276 274 272 271 272 272 271 274 277 277 275 275 277 278 277 277 278 276 275 275 276 278 279 280 283 285 286 287 292 293 291 295 299 298 299 303 302 300 300 304 306 309 316 322 324 326 328 324 317 315 313 313
239 238 236 236 238 241 245 246 245 240 232 228 228 227 224 222 226 233 238 242 247 252 257 262 267 271 275 277 279 281 282 281 280 280 278 273 268 265 265 266 269 274 280 285 286 287 283 273 266 268 270 271 274 276 278 279 280 283 284 283 286 289 288 290 296 297 294 296 299 297 297 301 305 307 310 317 322 322 326 328 322 315 313 314 316
239 239 237 237 238 240 243 244 243 239 233 229 227 225 222 221 226 232 237 241 246 253 259 263 266 270 274 277 280 283 285 285 284 282 275 268 262 258 260 265 272 278 287 293 297 296 285 269 262 264 267 269 272 274 275 277 280 282 282 280 283 285 287 293 297 295 294 297 298 297 300 303 303 304 310 318 320 320 324 325 316 311 312 316 320
238 237 235 235 237 238 241 244 244 240 234 230 226 223 221 222 226 232 238 243 248 254 258 261 265 269 273 278 282 286 290 289 288 283 272 264 259 256 257 264 273 281 290 295 299 298 279 261 263 266 267 270 271 272 272 275 280 279 277 277 278 281 285 292 294 293 295 297 297 297 299 300 300 305 314 318 317 319 322 320 314 311 314 318 321
236 234 233 234 237 239 242 245 245 241 235 229 225 222 222 224 227 233 240 245 250 253 256 260 264 267 272 277 281 285 289 289 288 286 279 270 262 258 258 265 272 278 287 294 299 296 275 257 262 266 266 269 269 270 271 273 275 273 272 273 274 278 284 288 290 290 293 294 295 299 301 303 306 309 313 314 317 320 319 318 317 314 316 319 320
234 233 233 234 237 240 242 244 244 241 235 230 226 223 223 225 229 236 241 246 250 253 256 260 263 267 271 276 281 283 285 285 284 286 287 283 275 266 264 266 270 274 283 290 296 295 277 262 262 263 264 268 268 266 267 268 269 268 268 269 270 277 285 287 289 291 294 297 300 304 306 307 308 307 310 316 320 320 318 319 318 316 317 318 317
232 232 232 231 234 237 240 242 243 241 237 232 230 227 225 228 233 239 244 247 251 254 257 260 264 268 272 278 281 282 282 282 284 287 290 289 287 280 273 269 269 273 281 287 292 293 280 266 261 263 264 265 264 261 261 262 263 263 264 266 271 277 283 286 289 293 296 298 301 304 305 304 305 307 313 318 319 317 316 316 316 316 316 315 313
230 230 230 229 231 233 236 240 242 242 239 236 235 232 230 233 238 242 245 248 252 255 257 260 264 269 274 279 282 284 285 286 289 294 297 295 290 287 281 274 273 275 280 287 291 293 284 266 261 266 264 258 257 256 256 258 257 257 259 265 274 280 284 287 290 292 293 295 298 300 298 297 300 307 312 314 314 314 313 313 314 314 313 313 312
226 227 228 228 230 231 234 238 241 242 241 241 240 237 236 239 244 246 246 249 253 256 258 259 262 268 275 280 283 285 289 297 303 301 297 293 289 289 286 276 275 276 278 285 292 293 284 265 262 266 256 248 252 253 252 253 252 252 256 263 272 278 283 287 288 289 290 291 292 291 290 292 298 305 307 309 312 312 310 310 311 311 311 311 310
223 224 226 227 229 231 232 236 240 242 243 244 244 241 242 245 249 251 250 252 255 257 259 259 261 268 274 277 280 286 290 300 313 313 304 295 285 282 283 277 276 274 276 284 289 288 278 265 265 263 249 244 249 251 249 250 251 251 256 262 268 276 282 284 282 283 285 285 284 283 285 291 298 301 303 306 309 308 307 307 307 306 306 306 306
222 223 224 225 227 229 231 235 239 241 244 246 245 245 249 251 253 254 253 254 256 258 260 262 264 269 272 274 278 286 289 285 288 296 303 306 295 282 280 279 275 270 272 278 281 281 272 263 262 256 246 244 251 253 249 247 251 253 257 261 267 275 278 279 278 279 281 281 281 283 289 297 300 299 302 304 305 305 304 303 299 298 299 300 302
222 222 223 223 225 228 230 235 238 241 244 246 247 249 253 256 257 257 257 257 259 261 263 266 268 270 271 274 278 286 290 284 283 288 294 300 303 296 289 281 273 268 269 268 271 278 274 262 255 244 238 248 256 255 247 245 250 253 255 260 266 273 276 278 283 286 289 287 285 288 295 300 297 297 300 301 301 300 298 295 292 293 296 299 302
222 222 223 224 225 227 230 234 238 241 244 246 249 252 256 260 261 260 260 261 262 265 267 269 270 272 274 277 280 285 290 291 293 296 296 295 295 296 298 294 280 269 264 261 264 273 270 258 248 236 239 253 255 248 244 245 249 251 254 259 267 276 280 283 287 291 293 293 290 290 294 296 294 295 297 297 296 295 291 288 289 292 296 300 304
Height
5901 5901 5901 5901 5900 5900 5900 5900 5900 5900 5900 5900 5899 5899 5899 5898 5897 5896 5895 5894 5893 5892 5891 5890 5889 5888 5887 5885 5885 5884 5883 5882 5881 5880 5879 5878 5876 5875 5874 5873 5872 5871 5870 5869 5868 5867 5866 5865 5864 5863 5862 5861 5860 5858 5857 5856 5855 5853 5852 5851 5850 5849 5848 5847 5846 5845 5844 5843 5842 5841 5841 5840 5840 5839 5839 5838 5837 5837 5836 5835 5835 5834 5833 5833 5832
5900 5900 5900 5900 5900 5900 5900 5900 5900 5899 5899 5899 5899 5899 5899 5898 5897 5896 5895 5894 5893 5892 5891 5890 5889 5888 5887 5886 5885 5884 5883 5882 5881 5880 5879 5878 5876 5875 5874 5874 5873 5872 5871 5869 5868 5867 5867 5866 5865 5864 5862 5861 5860 5859 5857 5856 5855 5853 5852 5851 5850 5849 5848 5847 5846 5845 5844 5843 5842 5841 5841 5840 5839 5839 5838 5838 5837 5837 5836 5835 5835 5834 5833 5833 5832
5900 5900 5900 5900 5900 5899 5899 5899 5899 5899 5899 5899 5898 5898 5898 5898 5897 5896 5895 5894 5893 5892 5891 5890 5889 5888 5887 5886 5885 5884 5883 5882 5881 5880 5879 5878 5876 5876 5875 5874 5873 5872 5871 5870 5868 5868 5867 5866 5865 5864 5863 5861 5860 5859 5857 5856 5855 5853 5852 5851 5850 5848 5847 5847 5846 5845 5844 5843 5842 5841 5841 5840 5839 5838 5838 5837 5837 5836 5836 5835 5835 5834 5833 5833 5832
5899 5899 5899 5899 5899 5899 5899 5899 5898 5898 5898 5898 5898 5898 5898 5898 5897 5896 5895 5894 5892 5892 5890 5889 5888 5887 5887 5885 5885 5884 5883 5882 5881 5880 5879 5877 5877 5876 5875 5874 5873 5872 5871 5870 5869 5868 5867 5866 5865 5864 5863 5862 5860 5859 5857 5856 5855 5853 5852 5850 5849 5848 5847 5846 5845 5845 5844 5843 5842 5841 5841 5840 5839 5838 5837 5837 5836 5836 5835 5835 5834 5834 5833 5833 5832
5898 5899 5899 5899 5898 5898 5898 5898 5898 5898 5898 5897 5897 5897 5897 5897 5897 5896 5894 5893 5892 5891 5890 5889 5888 5887 5886 5885 5885 5884 5883 5882 5881 5880 5878 5877 5877 5876 5875 5874 5873 5872 5871 5870 5869 5868 5867 5866 5865 5864 5863 5862 5861 5859 5858 5856 5855 5853 5852 5850 5849 5848 5847 5846 5845 5844 5844 5843 5842 5842 5841 5840 5839 5838 5837 5837 5836 5835 5835 5834 5834 5834 5833 5832 5832
5897 5898 5897 5897 5897 5897 5897 5897 5897 5897 5897 5897 5897 5896 5896 5896 5896 5895 5894 5893 5892 5891 5890 5889 5888 5887 5886 5885 5885 5884 5883 5882 5881 5879 5878 5877 5877 5876 5875 5874 5873 5872 5871 5870 5869 5868 5867 5866 5865 5864 5863 5862 5861 5859 5858 5856 5855 5853 5852 5850 5849 5848 5847 5846 5845 5844 5844 5843 5842 5842 5841 5840 5839 5838 5837 5837 5836 5835 5834 5834 5833 5833 5833 5832 5831
5895 5896 5895 5896 5896 5896 5896 5896 5896 5896 5896 5896 5896 5895 5895 5895 5895 5895 5894 5893 5892 5890 5889 5888 5888 5887 5886 5885 5884 5884 5883 5882 5880 5879 5878 5877 5877 5876 5875 5874 5873 5873 5872 5870 5869 5868 5867 5867 5865 5864 5863 5862 5861 5860 5858 5857 5855 5854 5852 5850 5849 5848 5847 5847 5846 5845 5844 5843 5842 5842 5841 5840 5839 5838 5838 5837 5836 5835 5834 5833 5833 5832 5832 5832 5831
5893 5894 5894 5894 5895 5895 5895 5895 5895 5895 5895 5895 5895 5894 5894 5894 5894 5894 5893 5892 5891 5890 5889 5888 5887 5886 5886 5885 5884 5883 5883 5882 5880 5879 5878 5878 5877 5876 5875 5874 5873 5873 5872 5871 5870 5868 5868 5867 5866 5864 5863 5862 5861 5860 5859 5857 5856 5854 5852 5851 5850 5848 5848 5847 5846 5845 5844 5844 5843 5842 5841 5840 5840 5839 5838 5837 5836 5835 5834 5833 5832 5832 5831 5831 5831
5891 5892 5892 5892 5893 5894 5894 5894 5894 5894 5894 5894 5894 5893 5893 5893 5893 5892 5892 5891 5890 5889 5888 5887 5886 5886 5885 5884 5884 5883 5882 5881 5880 5879 5878 5878 5877 5876 5875 5874 5873 5873 5872 5871 5870 5869 5868 5867 5866 5865 5864 5863 5862 5861 5859 5858 5856 5854 5853 5852 5850 5849 5848 5847 5846 5845 5845 5844 5843 5842 5841 5841 5840 5840 5839 5838 5836 5835 5834 5833 5832 5831 5831 5830 5830
5889 5890 5890 5890 5891 5892 5893 5893 5893 5893 5893 5893 5892 5892 5892 5892 5891 5891 5891 5891 5890 5889 5887 5886 5886 5885 5884 5884 5883 5883 5882 5881 5880 5879 5878 5878 5877 5876 5875 5874 5873 5873 5872 5871 5870 5869 5868 5867 5866 5865 5864 5863 5862 5861 5860 5858 5856 5855 5853 5852 5851 5850 5849 5847 5847 5846 5845 5844 5843 5842 5842 5842 5841 5840 5839 5838 5836 5835 5834 5833 5832 5831 5830 5830 5829
5887 5887 5888 5889 5889 5890 5891 5891 5891 5892 5892 5891 5891 5891 5891 5891 5890 5890 5890 5890 5889 5888 5887 5886 5885 5884 5884 5883 5883 5882 5882 5881 5880 5879 5878 5877 5876 5876 5875 5874 5873 5873 5872 5871 5870 5869 5868 5867 5867 5865 5864 5863 5862 5861 5860 5859 5857 5855 5854 5853 5852 5851 5850 5848 5847 5846 5846 5845 5843 5843 5843 5842 5841 5840 5839 5838 5836 5835 5834 5833 5832 5831 5830 5829 5829
5884 5885 5886 5887 5888 5888 5889 5889 5890 5890 5890 5890 5890 5890 5889 5889 5889 5889 5889 5889 5888 5887 5886 5885 5884 5884 5883 5883 5882 5882 5881 5881 5880 5879 5878 5877 5876 5875 5875 5874 5873 5872 5872 5871 5871 5869 5868 5868 5867 5866 5865 5863 5862 5862 5861 5859 5858 5856 5854 5853 5852 5851 5850 5849 5848 5847 5846 5845 5844 5844 5844 5843 5841 5840 5839 5838 5837 5836 5834 5833 5832 5831 5830 5829 5828
5882 5883 5884 5885 5886 5886 5887 5887 5888 5888 5889 5889 5889 5888 5888 5888 5888 5888 5888 5888 5887 5886 5885 5884 5883 5883 5882 5882 5882 5881 5881 5880 5879 5878 5878 5877 5876 5875 5874 5874 5873 5872 5872 5871 5871 5870 5869 5868 5867 5866 5865 5864 5862 5862 5861 5860 5858 5857 5855 5854 5852 5851 5850 5850 5849 5848 5847 5846 5844 5844 5844 5842 5841 5840 5839 5838 5837 5836 5835 5833 5832 5831 5830 5829 5828
5880 5881 5883 5883 5884 5884 5884 5885 5886 5887 5887 5887 5887 5887 5887 5887 5887 5887 5887 5886 5886 5885 5884 5883 5883 5882 5882 5881 5881 5880 5880 5879 5879 5878 5877 5876 5875 5875 5874 5873 5872 5872 5871 5871 5870 5870 5869 5868 5867 5866 5865 5864 5863 5862 5861 5860 5859 5857 5856 5854 5853 5852 5851 5850 5849 5848 5847 5846 5845 5844 5843 5842 5841 5840 5839 5838 5837 5836 5835 5834 5833 5831 5830 5829 5828
5879 5880 5880 5881 5881 5882 5882 5883 5884 5885 5886 5886 5886 5886 5886 5886 5886 5886 5886 5885 5885 5884 5883 5883 5882 5881 5881 5881 5880 5880 5879 5878 5878 5877 5877 5876 5875 5874 5874 5873 5872 5871 5871 5870 5870 5870 5869 5868 5867 5867 5865 5864 5863 5862 5861 5860 5859 5858 5857 5855 5854 5852 5851 5850 5849 5849 5848 5846 5845 5844 5843 5842 5841 5840 5839 5838 5837 5836 5835 5834 5833 5832 5831 5829 5828
5877 5878 5878 5879 5879 5880 5881 5882 5883 5884 5884 5884 5884 5885 5885 5885 5885 5885 5884 5884 5884 5883 5882 5882 5881 5880 5880 5880 5879 5879 5878 5877 5877 5876 5876 5875 5874 5874 5873 5872 5871 5871 5870 5870 5870 5869 5869 5868 5867 5867 5866 5864 5863 5862 5861 5861 5860 5859 5857 5856 5854 5853 5852 5851 5850 5849 5848 5847 5845 5844 5843 5842 5841 5840 5839 5839 5838 5837 5836 5835 5833 5832 5831 5829 5828
5876 5876 5876 5876 5877 5878 5879 5880 5881 5882 5882 5882 5883 5883 5884 5884 5884 5884 5883 5883 5883 5882 5881 5881 5880 5879 5879 5879 5878 5878 5877 5876 5876 5875 5875 5874 5874 5873 5872 5872 5871 5870 5870 5869 5869 5869 5868 5868 5867 5867 5866 5865 5863 5862 5862 5861 5860 5859 5858 5856 5855 5854 5853 5852 5851 5850 5848 5847 5846 5844 5843 5842 5841 5840 5839 5839 5838 5837 5836 5835 5833 5832 5831 5830 5828
5874 5874 5874 5875 5875 5876 5878 5879 5879 5880 5880 5880 5881 5882 5882 5882 5882 5882 5882 5882 5881 5881 5880 5879 5879 5878 5878 5877 5877 5877 5876 5875 5875 5874 5874 5873 5873 5872 5872 5871 5870 5869 5869 5868 5868 5868 5868 5867 5867 5866 5866 5865 5864 5863 5862 5861 5860 5859 5858 5857 5855 5854 5854 5853 5851 5850 5849 5847 5846 5845 5843 5842 5841 5840 5839 5838 5837 5836 5836 5835 5833 5832 5831 5830 5828
5872 5873 5873 5873 5874 5874 5876 5877 5877 5878 5878 5879 5879 5880 5881 5881 5881 5881 5881 5881 5880 5879 5879 5878 5877 5877 5876 5876 5876 5875 5875 5874 5874 5873 5873 5872 5871 5871 5871 5870 5869 5868 5868 5868 5867 5867 5867 5867 5866 5866 5865 5864 5863 5862 5862 5861 5860 5859 5858 5857 5856 5855 5854 5853 5852 5850 5849 5848 5846 5845 5843 5842 5841 5840 5839 5838 5837 5836 5835 5834 5833 5832 5831 5829 5828
5870 5872 5872 5871 5871 5872 5873 5874 5875 5876 5876 5876 5877 5878 5879 5879 5879 5879 5880 5879 5879 5878 5877 5876 5876 5875 5875 5875 5874 5874 5873 5873 5872 5872 5871 5871 5870 5870 5869 5869 5868 5867 5867 5867 5867 5867 5866 5866 5865 5865 5864 5864 5863 5862 5862 5861 5860 5859 5858 5857 5856 5855 5854 5853 5852 5851 5850 5848 5847 5846 5844 5842 5842 5841 5839 5838 5837 5836 5835 5834 5833 5832 5830 5829 5828
5867 5870 5870 5869 5868 5868 5870 5871 5872 5873 5873 5874 5875 5876 5877 5877 5877 5878 5878 5878 5877 5876 5876 5875 5874 5874 5874 5873 5873 5872 5872 5871 5871 5870 5870 5869 5869 5868 5868 5867 5866 5866 5866 5866 5866 5866 5865 5865 5865 5864 5864 5863 5862 5862 5861 5861 5860 5859 5858 5858 5857 5856 5854 5853 5852 5851 5850 5849 5848 5847 5845 5843 5842 5841 5839 5838 5837 5836 5835 5834 5833 5831 5830 5829 5828
5863 5864 5866 5866 5865 5865 5866 5867 5868 5870 5870 5871 5873 5874 5874 5875 5876 5876 5876 5876 5876 5875 5874 5873 5873 5873 5872 5872 5871 5870 5870 5870 5869 5869 5868 5867 5867 5867 5866 5866 5865 5865 5865 5864 5864 5864 5864 5864 5864 5863 5863 5862 5862 5861 5861 5860 5860 5859 5858 5858 5857 5856 5855 5853 5852 5851 5850 5849 5848 5847 5845 5844 5842 5841 5839 5838 5837 5836 5834 5833 5832 5831 5830 5829 5827
5858 5859 5860 5861 5861 5862 5864 5864 5865 5866 5867 5869 5870 5871 5872 5873 5874 5874 5874 5874 5874 5873 5873 5872 5871 5871 5870 5870 5869 5869 5868 5868 5868 5867 5866 5866 5865 5865 5865 5864 5864 5863 5863 5863 5863 5863 5863 5863 5863 5863 5862 5862 5861 5861 5861 5860 5859 5859 5858 5857 5857 5856 5855 5854 5852 5851 5850 5849 5848 5846 5845 5844 5842 5841 5839 5838 5837 5835 5834 5833 5832 5831 5829 5828 5827
5855 5855 5856 5857 5857 5859 5861 5861 5861 5862 5864 5866 5867 5868 5869 5871 5872 5872 5872 5872 5872 5871 5871 5870 5870 5869 5869 5868 5868 5867 5866 5866 5866 5865 5865 5864 5864 5864 5863 5863 5863 5862 5862 5861 5861 5861 5862 5862 5862 5862 5861 5861 5861 5861 5860 5860 5859 5858 5857 5857 5856 5855 5855 5853 5852 5851 5850 5849 5848 5846 5844 5843 5842 5841 5839 5838 5836 5835 5834 5833 5831 5830 5829 5828 5827
5852 5852 5853 5853 5854 5855 5857 5857 5857 5859 5861 5863 5864 5865 5867 5868 5870 5870 5870 5870 5870 5870 5869 5869 5868 5868 5867 5866 5866 5865 5865 5864 5864 5864 5863 5863 5862 5862 5862 5862 5861 5861 5860 5860 5860 5860 5860 5860 5860 5860 5860 5860 5860 5860 5859 5859 5858 5858 5857 5856 5855 5855 5854 5853 5852 5851 5850 5849 5847 5846 5844 5843 5842 5840 5839 5838 5836 5835 5834 5832 5831 5830 5828 5827 5826
5849 5849 5849 5850 5850 5851 5853 5854 5854 5855 5858 5860 5861 5863 5864 5866 5867 5868 5868 5868 5868 5868 5867 5867 5867 5866 5866 5864 5864 5864 5863 5863 5862 5862 5861 5861 5861 5860 5860 5860 5860 5859 5859 5858 5858 5858 5858 5859 5859 5859 5859 5859 5859 5858 5858 5857 5857 5856 5856 5855 5854 5854 5853 5852 5852 5850 5849 5848 5846 5845 5844 5843 5841 5840 5839 5837 5836 5835 5833 5831 5830 5829 5828 5826 5825
5846 5847 5847 5847 5847 5848 5849 5850 5851 5853 5855 5856 5858 5860 5862 5864 5864 5865 5866 5866 5866 5866 5865 5865 5865 5864 5864 5863 5862 5862 5862 5861 5860 5860 5860 5859 5859 5859 5859 5858 5858 5858 5857 5857 5856 5857 5857 5857 5857 5857 5857 5857 5857 5857 5856 5855 5855 5855 5854 5854 5853 5852 5852 5851 5850 5850 5848 5847 5846 5845 5844 5843 5841 5839 5838 5837 5835 5834 5832 5831 5830 5828 5827 5826 5824
5843 5844 5844 5844 5844 5845 5846 5847 5848 5850 5852 5853 5855 5857 5859 5861 5862 5863 5863 5864 5864 5864 5863 5863 5863 5862 5862 5861 5860 5860 5860 5859 5859 5858 5858 5857 5857 5857 5857 5857 5856 5856 5856 5855 5855 5855 5855 5855 5855 5855 5855 5855 5855 5855 5855 5854 5854 5853 5853 5852 5851 5850 5850 5849 5849 5849 5848 5846 5845 5845 5843 5842 5841 5839 5838 5836 5835 5833 5832 5830 5829 5828 5826 5825 5824
5840 5840 5840 5841 5841 5842 5843 5844 5845 5847 5849 5850 5851 5854 5856 5857 5859 5860 5861 5861 5862 5862 5861 5861 5861 5860 5859 5859 5858 5858 5858 5858 5857 5857 5856 5856 5855 5855 5855 5855 5854 5854 5854 5854 5853 5853 5853 5853 5853 5853 5853 5853 5853 5853 5853 5853 5852 5852 5851 5850 5849 5848 5848 5848 5848 5847 5847 5846 5845 5844 5843 5841 5840 5839 5837 5836 5834 5833 5831 5830 5828 5827 5826 5825 5823
5836 5837 5837 5837 5838 5838 5839 5841 5842 5843 5845 5846 5848 5851 5853 5855 5856 5857 5858 5859 5859 5860 5860 5859 5859 5858 5857 5856 5856 5856 5856 5856 5855 5855 5854 5854 5854 5853 5853 5853 5853 5852 5852 5852 5852 5851 5851 5851 5851 5851 5852 5852 5852 5852 5851 5851 5850 5850 5849 5849 5848 5847 5847 5847 5846 5846 5846 5845 5844 5843 5842 5841 5839 5838 5837 5835 5834 5832 5831 5829 5828 5827 5825 5824 5823
5833 5834 5834 5834 5835 5835 5836 5838 5839 5841 5842 5843 5845 5848 5850 5852 5853 5854 5856 5856 5857 5858 5858 5857 5856 5855 5854 5854 5854 5854 5854 5853 5854 5853 5853 5853 5852 5851 5851 5851 5851 5851 5850 5850 5850 5850 5849 5849 5849 5849 5849 5850 5850 5849 5849 5849 5848 5848 5848 5847 5847 5846 5846 5846 5845 5845 5844 5844 5843 5842 5841 5840 5838 5837 5836 5834 5833 5832 5830 5829 5827 5826 5825 5823 5822
5831 5832 5832 5832 5832 5832 5833 5835 5836 5838 5839 5840 5842 5845 5847 5849 5850 5852 5853 5854 5855 5855 5855 5854 5854 5852 5851 5851 5851 5852 5852 5851 5851 5851 5851 5851 5850 5850 5849 5849 5849 5849 5849 5848 5848 5848 5848 5848 5848 5848 5848 5847 5848 5847 5847 5847 5847 5846 5846 5846 5845 5844 5844 5844 5843 5843 5842 5842 5841 5840 5839 5839 5838 5836 5835 5834 5832 5831 5830 5828 5827 5825 5824 5823 5821
5829 5830 5830 5830 5830 5830 5831 5832 5834 5835 5836 5838 5840 5842 5844 5846 5847 5849 5850 5851 5852 5853 5853 5852 5851 5850 5848 5848 5848 5849 5850 5849 5848 5849 5849 5848 5848 5848 5848 5847 5847 5847 5847 5847 5847 5847 5846 5846 5846 5846 5846 5846 5846 5846 5846 5845 5845 5845 5844 5844 5843 5843 5842 5842 5841 5841 5840 5840 5840 5839 5838 5837 5836 5835 5834 5832 5831 5830 5829 5828 5826 5825 5823 5822 5820
5826 5827 5828 5828 5828 5828 5828 5829 5831 5833 5834 5835 5837 5840 5842 5843 5845 5846 5847 5848 5849 5850 5850 5849 5848 5847 5846 5845 5845 5846 5847 5846 5846 5846 5846 5846 5846 5846 5846 5846 5846 5846 5846 5846 5846 5846 5845 5845 5845 5845 5845 5845 5844 5844 5844 5843 5843 5843 5842 5842 5841 5841 5840 5840 5840 5839 5839 5838 5838 5838 5837 5836 5835 5834 5832 5831 5830 5829 5828 5827 5825 5824 5822 5821 5819
5824 5825 5825 5826 5826 5826 5826 5827 5829 5830 5831 5833 5835 5837 5839 5840 5842 5844 5844 5846 5846 5847 5847 5846 5846 5845 5843 5842 5843 5843 5844 5844 5844 5844 5844 5844 5844 5844 5844 5845 5845 5845 5845 5845 5845 5844 5844 5844 5844 5844 5844 5843 5843 5842 5842 5842 5841 5841 5840 5840 5840 5839 5838 5838 5838 5837 5837 5837 5836 5836 5835 5834 5833 5832 5831 5830 5829 5828 5827 5826 5824 5823 5821 5819 5818
5821 5821 5822 5824 5824 5824 5824 5825 5826 5828 5829 5831 5833 5834 5836 5838 5839 5841 5842 5843 5843 5844 5844 5844 5843 5842 5840 5840 5840 5841 5842 5842 5841 5842 5842 5842 5842 5842 5843 5843 5843 5843 5844 5843 5843 5843 5843 5843 5843 5843 5843 5842 5842 5841 5840 5840 5839 5839 5838 5838 5838 5837 5837 5836 5836 5835 5835 5835 5835 5834 5834 5833 5832 5831 5830 5829 5828 5827 5826 5825 5823 5822 5820 5818 5817
5817 5818 5820 5821 5822 5822 5822 5823 5824 5826 5827 5829 5830 5832 5834 5835 5837 5838 5839 5840 5840 5841 5841 5841 5840 5839 5838 5837 5837 5838 5839 5840 5839 5840 5840 5840 5840 5841 5841 5841 5841 5841 5841 5841 5841 5841 5841 5841 5841 5841 5841 5841 5840 5840 5839 5839 5838 5837 5836 5836 5836 5835 5835 5834 5834 5834 5833 5833 5833 5833 5832 5831 5831 5830 5829 5828 5827 5826 5825 5824 5822 5821 5819 5817 5815
5814 5816 5817 5819 5819 5820 5820 5821 5822 5823 5825 5827 5828 5830 5832 5833 5834 5835 5836 5837 5838 5838 5838 5837 5837 5837 5836 5835 5835 5836 5837 5838 5837 5838 5838 5838 5838 5839 5839 5838 5838 5839 5839 5839 5838 5838 5838 5838 5839 5839 5839 5839 5839 5838 5838 5837 5836 5835 5835 5834 5834 5833 5833 5832 5832 5832 5832 5831 5831 5831 5830 5829 5829 5828 5827 5826 5826 5825 5824 5823 5821 5819 5817 5816 5814
5812 5813 5814 5816 5817 5817 5818 5819 5820 5821 5823 5825 5826 5828 5830 5831 5831 5832 5833 5834 5835 5835 5835 5835 5835 5834 5833 5833 5832 5834 5835 5835 5835 5836 5837 5837 5837 5837 5836 5836 5835 5835 5835 5835 5835 5835 5835 5835 5836 5836 5837 5837 5836 5836 5836 5835 5834 5834 5833 5832 5832 5831 5831 5830 5830 5830 5830 5830 5829 5829 5828 5828 5827 5826 5825 5825 5824 5823 5823 5821 5820 5817 5816 5814 5813
5809 5810 5812 5813 5814 5815 5816 5817 5817 5819 5820 5823 5824 5826 5827 5828 5829 5830 5831 5832 5832 5833 5833 5834 5833 5832 5831 5830 5830 5831 5833 5833 5833 5834 5834 5834 5834 5834 5833 5833 5833 5833 5833 5833 5834 5834 5834 5834 5834 5834 5834 5834 5834 5834 5833 5833 5833 5832 5831 5831 5830 5830 5829 5828 5828 5828 5828 5828 5828 5827 5826 5826 5825 5824 5823 5823 5822 5822 5821 5820 5818 5816 5814 5813 5812
5807 5808 5809 5810 5811 5812 5813 5814 5815 5816 5818 5820 5822 5824 5825 5826 5827 5827 5828 5829 5829 5830 5831 5831 5830 5830 5829 5828 5828 5828 5830 5830 5830 5831 5831 5830 5831 5831 5830 5831 5831 5831 5831 5832 5832 5831 5832 5832 5832 5832 5832 5832 5831 5832 5831 5831 5831 5830 5830 5829 5829 5828 5827 5827 5827 5826 5826 5826 5826 5825 5824 5824 5823 5823 5822 5822 5821 5820 5820 5818 5816 5814 5813 5812 5811
5804 5805 5806 5807 5808 5809 5811 5812 5813 5814 5816 5818 5820 5821 5822 5823 5824 5824 5825 5826 5827 5828 5828 5828 5828 5827 5827 5826 5826 5826 5827 5827 5827 5827 5827 5827 5827 5828 5828 5829 5829 5830 5830 5830 5829 5829 5829 5830 5830 5830 5830 5830 5829 5829 5829 5829 5829 5828 5828 5827 5827 5826 5825 5825 5825 5825 5824 5824 5824 5823 5823 5822 5821 5821 5821 5820 5819 5819 5818 5816 5815 5813 5812 5811 5810
5801 5802 5803 5804 5806 5807 5809 5810 5811 5812 5813 5815 5817 5818 5819 5820 5821 5822 5823 5824 5824 5825 5825 5825 5825 5825 5824 5824 5824 5824 5825 5824 5824 5824 5824 5824 5825 5825 5826 5827 5827 5827 5827 5827 5827 5827 5827 5827 5828 5828 5829 5828 5827 5827 5827 5827 5827 5826 5826 5826 5825 5824 5824 5824 5823 5823 5822 5822 5822 5821 5820 5820 5819 5819 5819 5819 5818 5817 5816 5814 5813 5812 5811 5810 5809
5798 5799 5800 5802 5804 5805 5807 5808 5809 5810 5811 5813 5814 5816 5817 5818 5819 5820 5821 5821 5822 5822 5822 5822 5822 5822 5822 5821 5821 5822 5822 5821 5821 5822 5823 5823 5823 5824 5824 5825 5825 5825 5825 5825 5825 5825 5825 5825 5825 5826 5827 5826 5825 5825 5825 5825 5825 5824 5824 5824 5823 5823 5823 5822 5822 5821 5821 5820 5819 5819 5818 5817 5817 5817 5817 5817 5816 5815 5813 5812 5812 5811 5810 5809 5807
5796 5797 5798 5800 5802 5803 5804 5805 5806 5807 5809 5810 5812 5814 5815 5816 5817 5817 5818 5819 5819 5819 5819 5819 5819 5820 5819 5819 5818 5818 5819 5818 5818 5820 5821 5822 5822 5823 5823 5823 5822 5823 5823 5823 5823 5823 5823 5822 5822 5823 5824 5824 5823 5823 5823 5823 5822 5822 5822 5822 5821 5821 5821 5821 5820 5820 5819 5818 5817 5817 5816 5815 5815 5815 5815 5815 5814 5813 5811 5811 5810 5809 5808 5807 5806
5793 5794 5796 5798 5799 5800 5802 5803 5804 5805 5807 5809 5810 5812 5813 5814 5815 5815 5816 5817 5817 5816 5816 5817 5817 5817 5817 5817 5816 5815 5816 5816 5817 5818 5820 5820 5820 5821 5821 5821 5820 5820 5821 5821 5820 5820 5820 5819 5819 5820 5821 5821 5820 5821 5821 5821 5821 5820 5820 5819 5819 5819 5819 5819 5818 5818 5818 5817 5816 5816 5815 5814 5814 5814 5813 5812 5812 5811 5810 5809 5808 5807 5806 5805 5804
5791 5792 5794 5795 5797 5798 5800 5801 5802 5804 5806 5807 5809 5810 5811 5812 5812 5813 5814 5814 5814 5813 5813 5814 5815 5816 5816 5814 5813 5813 5813 5815 5816 5816 5817 5817 5817 5818 5818 5818 5817 5818 5818 5818 5818 5817 5817 5817 5817 5818 5818 5818 5818 5819 5819 5819 5819 5818 5818 5818 5818 5817 5817 5817 5817 5816 5816 5816 5815 5815 5814 5813 5813 5812 5812 5810 5810 5809 5808 5808 5806 5805 5804 5803 5802
5788 5789 5791 5793 5795 5796 5797 5799 5800 5802 5804 5806 5807 5808 5809 5810 5810 5810 5811 5811 5811 5811 5811 5811 5813 5814 5813 5811 5811 5811 5812 5814 5814 5814 5814 5814 5814 5814 5815 5815 5815 5815 5815 5815 5815 5815 5815 5814 5815 5815 5816 5816 5817 5817 5817 5817 5817 5817 5816 5816 5816 5816 5815 5815 5815 5815 5815 5815 5814 5814 5813 5812 5812 5811 5810 5808 5808 5808 5807 5806 5805 5803 5802 5801 5800
5786 5787 5789 5791 5792 5794 5795 5797 5798 5800 5802 5804 5805 5806 5807 5808 5808 5808 5809 5809 5809 5808 5808 5809 5811 5811 5810 5809 5809 5809 5810 5812 5812 5811 5811 5812 5811 5811 5812 5812 5812 5812 5812 5812 5812 5812 5812 5812 5812 5813 5814 5815 5815 5815 5816 5816 5816 5815 5815 5814 5814 5814 5814 5814 5813 5813 5813 5813 5813 5812 5811 5811 5810 5809 5808 5807 5806 5806 5805 5804 5803 5802 5801 5799 5798
5783 5785 5786 5788 5790 5791 5793 5795 5797 5799 5800 5802 5803 5804 5805 5806 5806 5806 5806 5806 5806 5806 5806 5807 5808 5808 5807 5807 5808 5807 5808 5809 5809 5808 5809 5810 5810 5809 5809 5809 5809 5809 5809 5809 5809 5809 5809 5809 5809 5810 5811 5812 5813 5813 5814 5814 5814 5814 5813 5812 5812 5811 5812 5812 5811 5811 5811 5811 5811 5810 5810 5810 5808 5807 5806 5805 5804 5804 5804 5803 5801 5800 5799 5797 5796
5780 5782 5784 5786 5788 5789 5791 5793 5795 5797 5798 5800 5801 5802 5803 5803 5804 5804 5804 5804 5804 5804 5804 5805 5804 5804 5805 5805 5806 5806 5806 5807 5806 5805 5806 5807 5807 5807 5807 5806 5806 5806 5806 5806 5807 5807 5807 5807 5807 5807 5808 5810 5811 5811 5811 5812 5812 5812 5811 5810 5809 5809 5809 5810 5809 5809 5809 5809 5809 5809 5809 5808 5807 5806 5805 5804 5803 5802 5802 5801 5800 5798 5797 5795 5794